User: anonymous   Login
Location: Caltech
(34.1382°N, 118.1253°W)
Time: 07:49:06
(UTC-08:00)
Language:

Oscar 11 - Orbit

View from above orbital plane
View from above orbital plane
View from above satellite
View from above satellite

Ground track
Ground track

The orbit data is extracted from the following two-line orbital elements,

1 14781U 84021B   17058.17911519  .00000151  00000-0  24983-4 0  9998
2 14781  97.7133 107.8569 0008212 190.5985 169.5057 14.82861512774042
Epoch (UTC): 27 February 2017 04:17:55
Eccentricity: 0.0008212
inclination: 97.7133°
perigee height: 614 km
apogee height: 626 km
right ascension of ascending node: 107.8569°
argument of perigee: 190.5985°
revolutions per day: 14.82861512
mean anomaly at epoch: 169.5057°
orbit number at epoch: 77404

The dashed part of the orbit path shows where the satellite is in the earth's shadow,  

DLR